[[{"header":{"parameterUnit":"m.s-1","parameterCategory":1,"la1":30.2991,"la2":30.254,"lo1":-89.0895,"lo2":-89.0444,"dy":0.0017,"dx":0.0017,"nx":28,"ny":28,"refTime":"2023-08-20T09:00:00:Z","depth":0,"parameterNumber":2,"parameterNumberName":"U-component_of_WINDS"},"data":[0,0,0,0,0,0,0,0,0,0,0,0,0,0,0,0,0,0,0,0,0,0,0,0,0,0,0,0,0,0,0,0,0,0,0,0,0,0,0,0,0,0,0,0,0,0,0,0,0,0,0,0,0,0,0,0,0,0,-3.6119,-3.612,0,-3.6164,-3.6164,-3.6165,-3.6115,-3.6113,-3.6112,-3.611,-3.6154,-3.6157,-3.6159,0,0,0,0,0,0,0,0,0,0,0,0,0,-3.5992,-3.5994,-3.6119,-3.612,-3.612,-3.6164,-3.6164,-3.6165,-3.6116,-3.6113,-3.6111,-3.6109,-3.6153,-3.6156,-3.616,0,0,0,0,0,0,0,0,0,0,0,0,0,-3.6043,-3.5995,-3.6119,-3.6101,-3.61,-3.6164,-3.6164,-3.6165,-3.6116,-3.6113,-3.6111,-3.6108,-3.6152,-3.6156,-3.616,-3.6243,0,0,-3.6174,-3.6175,0,0,0,0,0,0,0,0,-3.604,-3.6047,-3.6103,-3.6102,-3.6101,-3.6131,-3.6135,-3.6191,-3.6117,-3.611,-3.611,-3.6107,-3.6148,-3.6153,-3.6167,-3.6245,-3.6247,-3.6174,-3.6177,-3.6178,-3.618,0,0,0,0,0,0,0,-3.6036,-3.6045,-3.6137,-3.6104,-3.6103,-3.6091,-3.6095,-3.6146,-3.6144,-3.611,-3.6107,-3.6113,-3.6147,-3.6163,-3.6168,-3.6248,-3.6174,-3.6178,-3.618,-3.6182,-3.6399,-3.6402,0,0,0,0,0,0,-3.6035,-3.6043,-3.6135,-3.6138,-3.6063,-3.6095,-3.61,-3.6124,-3.6144,-3.6144,-3.6115,-3.611,-3.6157,-3.6163,-3.6169,-3.627,-3.6178,-3.6183,-3.6185,-3.6396,-3.64,-3.6403,0,0,0,0,0,0,-3.6032,-3.6044,-3.6134,-3.609,-3.61,-3.6101,-3.6128,-3.6127,-3.6143,-3.6147,-3.6147,-3.6132,-3.6155,-3.6163,-3.6226,-3.627,-3.6185,-3.6188,-3.6392,-3.6397,-3.6401,-3.647,0,0,0,0,0,0,-3.6029,-3.6043,-3.6075,-3.6091,-3.6103,-3.619,-3.6131,-3.613,-3.615,-3.6145,-3.6163,-3.6163,-3.6154,-3.622,-3.623,-3.6275,-3.6192,-3.6388,-3.6394,-3.64,-3.6463,-3.6476,-3.6487,0,0,0,0,0,-3.6025,-3.6091,-3.6076,-3.6088,-3.6142,-3.6192,-3.6199,-3.6187,-3.6154,-3.6186,-3.619,-3.6162,-3.6264,-3.6227,-3.6238,-3.6284,-3.6385,-3.6393,-3.64,-3.6458,-3.6474,-3.6487,0,0,0,0,0,0,-3.6079,-3.6093,-3.6077,-3.615,-3.6171,-3.6184,-3.6223,-3.6204,-3.6233,-3.6226,-3.621,-3.6215,-3.6282,-3.6289,-3.6248,-3.6367,-3.6319,-3.6329,-3.636,-3.6375,-3.6386,-3.6383,-3.6196,0,0,0,0,0,-3.6099,-3.6139,-3.6149,-3.6213,-3.6225,-3.6223,-3.6244,-3.6233,-3.6254,-3.6262,-3.627,-3.629,-3.6327,-3.6351,-3.6385,-3.6465,-3.6469,-3.6502,-3.6514,-3.6524,-3.6532,-3.6577,-3.6593,-3.6426,-3.6426,-3.6426,0,0,-3.6142,-3.6155,-3.6181,-3.6225,-3.6239,-3.6281,-3.623,-3.6276,-3.6307,-3.6268,-3.6329,-3.6336,-3.6358,-3.643,-3.6462,-3.6438,-3.6579,-3.6533,-3.654,-3.6544,-3.6586,-3.6602,-3.6616,-3.6431,-3.643,-3.643,0,0,-3.6241,-3.6255,-3.6311,-3.6327,-3.635,-3.6349,-3.6363,-3.638,-3.6383,-3.6444,-3.6416,-3.6453,-3.6516,-3.6533,-3.6551,-3.666,-3.6637,-3.6672,-3.6733,-3.6777,-3.679,-3.6802,-3.6842,-3.6856,-3.668,-3.668,-3.668,0,-3.6291,-3.6354,-3.6341,-3.6391,-3.6411,-3.638,-3.6437,-3.6453,-3.6486,-3.6501,-3.6474,-3.6554,-3.6567,-3.6644,-3.6671,-3.6685,-3.6701,-3.6669,-3.6789,-3.6801,-3.6811,-3.685,-3.6865,-3.6684,-3.6684,-3.6684,-3.6683,0,-3.6415,-3.6459,-3.6501,-3.6536,-3.6561,-3.6614,-3.661,-3.6637,-3.6625,-3.6627,-3.669,-3.6705,-3.6742,-3.6759,-3.6747,-3.6835,-3.682,-3.6792,-3.6743,-3.6831,-3.6867,-3.6882,-3.669,-3.6689,-3.6688,-3.6687,0,0,-3.6548,-3.6577,-3.6592,-3.6609,-3.6634,-3.6667,-3.6719,-3.6757,-3.6781,-3.6806,-3.685,-3.6905,-3.688,-3.6899,-3.6889,-3.6928,-3.7016,-3.6895,-3.6895,-3.6918,-3.7116,-3.7138,-3.7155,-3.7001,-3.7004,-3.7006,-3.7115,0,-3.6648,-3.6739,-3.6731,-3.6817,-3.6858,-3.6831,-3.6876,-3.6897,-3.6901,-3.6936,-3.694,-3.6981,-3.6943,-3.6955,-3.6992,-3.6998,-3.7056,-3.699,-3.7042,-3.7044,-3.7038,-3.7174,-3.7196,-3.7298,-3.7129,-3.7131,-3.7133,0,-3.6777,-3.6809,-3.6899,-3.692,-3.6937,-3.6979,-3.7014,-3.7048,-3.7072,-3.7072,-3.7095,-3.708,-3.7133,-3.7084,-3.7158,-3.7113,-3.7135,-3.7141,-3.7145,-3.7149,-3.7094,-3.7182,-3.733,-3.7345,-3.7154,-3.7153,-3.7151,0,-3.6867,-3.6931,-3.6994,-3.7009,-3.7035,-3.7065,-3.7077,-3.7097,-3.7121,-3.7152,-3.7168,-3.7204,-3.7224,-3.7253,-3.7248,-3.7212,-3.7324,-3.7274,-3.7326,-3.7327,-3.7351,-3.7349,-3.7504,-3.7364,-3.7364,-3.7363,-3.7363,0,-3.698,-3.7037,-3.7035,-3.7074,-3.7138,-3.7128,-3.7191,-3.72,-3.7219,-3.726,-3.7238,-3.7276,-3.7267,-3.7306,-3.7302,-3.7365,-3.7374,-3.7376,-3.7374,-3.7378,-3.7378,-3.7392,-3.7385,-3.7368,-3.7367,-3.7366,-3.7365,0,-3.709,-3.7091,-3.7158,-3.7178,-3.7185,-3.7231,-3.7248,-3.7285,-3.7288,-3.734,-3.7351,-3.7356,-3.7401,-3.7399,-3.7449,-3.7447,-3.7525,-3.7515,-3.7517,-3.7515,-3.7568,-3.7563,-3.7737,-3.776,-3.7605,-3.7606,-3.7608,0,-3.7162,-3.7206,-3.7231,-3.7257,-3.7272,-3.7314,-3.7339,-3.7332,-3.7359,-3.7391,-3.7425,-3.7468,-3.7502,-3.7575,-3.7583,-3.7622,-3.7613,-3.7671,-3.7618,-3.7621,-3.7615,-3.7612,-3.7617,-3.7681,-3.7683,-3.7684,-3.7685,0,-3.7291,-3.729,-3.7327,-3.7366,-3.7397,-3.7426,-3.7453,-3.7476,-3.7472,-3.7504,-3.755,-3.7577,-3.763,-3.7673,-3.7711,-3.7723,-3.7705,-3.7702,-3.7717,-3.7721,-3.7721,-3.7723,-3.7546,-3.7698,-3.7697,-3.7696,-3.7695,-3.7695,-3.7384,-3.7423,-3.7447,-3.749,-3.7511,-3.7537,-3.7574,-3.7583,-3.7621,-3.7664,-3.7658,-3.771,-3.7735,-3.7784,-3.7801,-3.7842,-3.7821,-3.7842,-3.7847,-3.7852,-3.7859,-3.7715,-3.7849,-3.7848,-3.7848,-3.7848,-3.7847,0,-3.7513,-3.7528,-3.7568,-3.7608,-3.7642,-3.7623,-3.7652,-3.7682,-3.7729,-3.7754,-3.7789,-3.7843,-3.7886,-3.7899,-3.794,-3.7971,-3.7963,-3.7982,-3.798,-3.7983,-3.7874,-3.7858,-3.7988,-3.7987,-3.7987,-3.7987,-3.7987,-3.7987,-3.7583,-3.7648,-3.765,-3.7725,-3.774,-3.7792,-3.7811,-3.7836,-3.7856,-3.7918,-3.7954,-3.7962,-3.7983,-3.8027,-3.8066,-3.8068,-3.8085,-3.8108,-3.8107,-3.8005,-3.7991,-3.7977,-3.7962,-3.8111,-3.8111,-3.8213,-3.8214,-3.8214]},{"header":{"parameterUnit":"m.s-1","parameterCategory":1,"la1":30.2991,"la2":30.254,"lo1":-89.0895,"lo2":-89.0444,"dy":0.0017,"dx":0.0017,"nx":28,"ny":28,"refTime":"2023-08-20T09:00:00:Z","depth":0,"parameterNumber":3,"parameterNumberName":"V-component_of_WINDS"},"data":[0,0,0,0,0,0,0,0,0,0,0,0,0,0,0,0,0,0,0,0,0,0,0,0,0,0,0,0,0,0,0,0,0,0,0,0,0,0,0,0,0,0,0,0,0,0,0,0,0,0,0,0,0,0,0,0,0,0,1.6039,1.6037,0,1.5879,1.5877,1.5875,1.5845,1.5846,1.5848,1.5849,1.567,1.5664,1.5658,0,0,0,0,0,0,0,0,0,0,0,0,0,1.6308,1.6304,1.6039,1.6037,1.6035,1.5879,1.5877,1.5875,1.5845,1.5846,1.5848,1.5849,1.5672,1.5664,1.5657,0,0,0,0,0,0,0,0,0,0,0,0,0,1.6174,1.6302,1.6039,1.6002,1.5997,1.5879,1.5877,1.5874,1.5844,1.5846,1.5848,1.585,1.5674,1.5665,1.5656,1.556,0,0,1.5629,1.5625,0,0,0,0,0,0,0,0,1.6181,1.6164,1.6009,1.6004,1.5999,1.5884,1.5906,1.5768,1.5844,1.5902,1.5849,1.5851,1.5738,1.5724,1.5689,1.5552,1.5544,1.5628,1.5622,1.5619,1.5616,0,0,0,0,0,0,0,1.6191,1.617,1.5975,1.6007,1.6,1.5989,1.5972,1.588,1.581,1.5897,1.5894,1.5877,1.5736,1.5698,1.5685,1.5542,1.5628,1.562,1.5615,1.5611,1.5319,1.5317,0,0,0,0,0,0,1.6209,1.6179,1.598,1.597,1.6097,1.5983,1.5964,1.5919,1.5811,1.5797,1.5875,1.5876,1.5712,1.5695,1.5678,1.5559,1.5619,1.561,1.5605,1.5321,1.5318,1.5316,0,0,0,0,0,0,1.6215,1.6191,1.5987,1.6074,1.6047,1.5976,1.5925,1.5914,1.5877,1.5795,1.5781,1.585,1.5713,1.5691,1.5591,1.5552,1.5606,1.5598,1.5324,1.532,1.5317,1.532,0,0,0,0,0,0,1.6222,1.6194,1.6159,1.6074,1.6043,1.5906,1.5923,1.591,1.5863,1.5862,1.5768,1.5754,1.5713,1.5605,1.5582,1.5541,1.5591,1.5327,1.5322,1.5318,1.5322,1.5317,1.5312,0,0,0,0,0,1.6232,1.6162,1.6157,1.6133,1.5998,1.5903,1.5885,1.5844,1.586,1.5823,1.5771,1.5757,1.5562,1.5595,1.5569,1.5524,1.5329,1.5324,1.5319,1.5325,1.5318,1.5312,0,0,0,0,0,0,1.6238,1.615,1.6143,1.6045,1.5983,1.5899,1.585,1.5838,1.5765,1.5767,1.5715,1.5694,1.5597,1.5551,1.559,1.5427,1.5446,1.5435,1.546,1.5452,1.5447,1.5457,1.5583,0,0,0,0,0,1.6229,1.6164,1.6089,1.6009,1.5979,1.5921,1.5877,1.5852,1.5783,1.5755,1.5696,1.5626,1.5549,1.5498,1.5423,1.5318,1.5295,1.5274,1.5269,1.5265,1.5254,1.5195,1.5185,1.5298,1.5299,1.5299,0,0,1.6207,1.6151,1.6112,1.6009,1.5957,1.5887,1.5898,1.5822,1.5769,1.5742,1.5645,1.56,1.5518,1.5416,1.5368,1.5374,1.5219,1.5258,1.5256,1.5247,1.5189,1.5178,1.5169,1.5295,1.5296,1.5296,0,0,1.6131,1.6084,1.6012,1.5963,1.5888,1.585,1.5834,1.5753,1.5723,1.5627,1.5606,1.554,1.5409,1.5352,1.5306,1.5215,1.5199,1.5192,1.5161,1.5104,1.5095,1.5087,1.5052,1.5041,1.5183,1.5183,1.5183,0,1.6111,1.6009,1.5975,1.5903,1.5857,1.5838,1.5763,1.5715,1.5617,1.5584,1.5596,1.5433,1.5376,1.526,1.5239,1.5203,1.518,1.52,1.51,1.5091,1.5083,1.5049,1.5037,1.5183,1.5183,1.5183,1.5183,0,1.5988,1.5918,1.5869,1.5782,1.5731,1.5657,1.561,1.5562,1.5543,1.5503,1.5405,1.5339,1.525,1.5222,1.5199,1.5103,1.511,1.5112,1.5128,1.5072,1.504,1.5027,1.5182,1.5182,1.5182,1.5182,0,0,1.5905,1.5806,1.5787,1.5748,1.5667,1.5609,1.5536,1.5455,1.5414,1.5349,1.5283,1.5176,1.5178,1.5126,1.5098,1.5049,1.498,1.5056,1.5053,1.5042,1.4867,1.4864,1.485,1.4971,1.4969,1.4967,1.4873,0,1.5817,1.5689,1.5658,1.5546,1.548,1.5463,1.5398,1.534,1.5302,1.5238,1.5195,1.5119,1.5129,1.5098,1.5049,1.4999,1.4943,1.5005,1.4905,1.4902,1.4922,1.4833,1.4828,1.4743,1.4861,1.4859,1.4857,0,1.5695,1.5634,1.5517,1.5448,1.5419,1.5361,1.5286,1.5226,1.5159,1.5136,1.5081,1.506,1.4979,1.5005,1.4892,1.4935,1.4893,1.4862,1.4858,1.4843,1.4873,1.4812,1.4715,1.4701,1.4837,1.4839,1.484,0,1.5644,1.5532,1.5448,1.5415,1.5332,1.5292,1.5255,1.5191,1.5145,1.5079,1.5048,1.4971,1.4928,1.4868,1.4825,1.4849,1.4714,1.4737,1.4689,1.469,1.4656,1.4658,1.4548,1.4636,1.4637,1.4637,1.4637,0,1.5546,1.5474,1.5424,1.5371,1.5291,1.5257,1.5176,1.5138,1.5083,1.502,1.5001,1.4941,1.4891,1.4824,1.4791,1.4701,1.4682,1.4658,1.4648,1.4657,1.466,1.4625,1.4628,1.4633,1.4634,1.4635,1.4635,0,1.5472,1.5436,1.5343,1.5275,1.5256,1.5199,1.5139,1.5086,1.5052,1.4973,1.4952,1.4896,1.4817,1.4771,1.4669,1.4647,1.4547,1.4542,1.457,1.4565,1.4519,1.4523,1.4378,1.4356,1.4464,1.4463,1.4462,0,1.541,1.5355,1.5284,1.5244,1.5208,1.5142,1.5098,1.5063,1.5016,1.4939,1.4895,1.4817,1.4752,1.4627,1.4573,1.4496,1.4487,1.4443,1.4474,1.4486,1.4483,1.4485,1.4478,1.4435,1.4434,1.4433,1.4432,0,1.5303,1.5289,1.5228,1.5161,1.511,1.5054,1.4999,1.4966,1.4922,1.487,1.4793,1.4743,1.4644,1.4565,1.4485,1.4442,1.4428,1.4424,1.4408,1.4414,1.4432,1.4419,1.4551,1.4426,1.4426,1.4427,1.4427,1.4428,1.523,1.5181,1.5125,1.5057,1.5014,1.4964,1.4912,1.4874,1.4811,1.473,1.4714,1.4631,1.4568,1.446,1.4416,1.4349,1.4356,1.4333,1.4327,1.4321,1.4318,1.4448,1.4335,1.4335,1.4335,1.4335,1.4335,0,1.5119,1.5084,1.5024,1.495,1.4897,1.4897,1.4837,1.4791,1.4721,1.4665,1.4605,1.4516,1.4441,1.4385,1.4308,1.4265,1.4257,1.4245,1.4245,1.4236,1.4318,1.4338,1.4254,1.4254,1.4254,1.4254,1.4254,1.4254,1.5055,1.4973,1.4954,1.485,1.4814,1.4737,1.4703,1.4656,1.4612,1.4516,1.4456,1.4423,1.4366,1.4286,1.4216,1.4202,1.4172,1.4162,1.4145,1.4221,1.423,1.4238,1.4257,1.4157,1.4156,1.4068,1.4068,1.4067]}]]